Regional Weather Roundup
Issued by NWS Northern Indiana

Home | Current Version | Previous Version | Text Only | Print | Product List | Glossary Off
Versions: 1 2 3 4 5 6 7 8 9 10 11 12 13 14 15 16 17 18 19 20 21 22 23 24 25 26 27 28 29 30 31 32 33 34 35 36 37 38 39 40 41 42 43 44 45 46 47 48 49 50

000
ASUS43 KIWX 281610
RWRIWX

KIWX WEATHER ROUNDUP
NATIONAL WEATHER SERVICE NORTHERN INDIANA
1100 AM EST FRI NOV 28 2014

NOTE: "FAIR" INDICATES FEW OR NO CLOUDS BELOW 12,000 FEET WITH NO
SIGNIFICANT WEATHER AND/OR OBSTRUCTIONS TO VISIBILITY.

* THESE STATIONS ARE NOT UNDER NWS QUALITY CONTROL. THEY ALSO MAY NOT
  REPORT WEATHER SUCH AS PRECIPITATION OR FOG.

INZ001>027-281700-
NORTHERN INDIANA

CITY           SKY/WX    TMP DP  RH WIND       PRES   REMARKS
GARY*          PTSUNNY   27  16  63 SW10      30.27F WCI  17
VALPARAISO     PTSUNNY   23  16  74 S14       30.27F WCI  11
MICHIGAN CITY* PTSUNNY   27  16  63 S12       30.27F WCI  16
LAPORTE*       PTSUNNY   26  19  75 S10G16    30.27F WCI  16
KNOX*          CLOUDY    24  17  76 S12       30.28F WCI  13
SOUTH BEND     LGT SNOW  22  18  85 S10       30.28F FOG     WCI  11
GOSHEN         LGT SNOW  22  17  81 S13       30.29F WCI  10
MONTICELLO*    PTSUNNY   25  18  76 S10       30.30S WCI  15
LOGANSPORT*    CLOUDY    27  19  74 S10       30.31F WCI  17
ROCHESTER*     PTSUNNY   28  21  74 S7        30.31F WCI  21
WARSAW*        CLOUDY    25  18  74 S5        30.31S WCI  19
ANGOLA*        MOSUNNY   21  16  79 S8        30.28F WCI  12
FORT WAYNE     CLOUDY    25  18  74 S10       30.32F WCI  15
HUNTINGTON*    CLOUDY    25  18  75 S7        30.32S WCI  17
PERU/GRISSOM   CLOUDY    25  22  88 S10       30.30F WCI  15
MARION*          N/A     26  19  74 S12       30.33S WCI  15

$$
INZ028>050-281700-
CENTRAL INDIANA

CITY           SKY/WX    TMP DP  RH WIND       PRES   REMARKS
LAFAYETTE      CLOUDY    24  14  65 S9        30.31F WCI  14
KOKOMO*        CLOUDY    25  19  80 S10       30.32F WCI  15
MUNCIE*        CLOUDY    26  19  74 S10       30.32F WCI  16
INDIANAPOLIS   CLOUDY    25  16  68 S13       30.32F WCI  14

$$
MIZ043>046-050>051-056>058-064>065-071>073-077>080-281700-
SOUTHWEST LOWER MICHIGAN

CITY           SKY/WX    TMP DP  RH WIND       PRES   REMARKS
BATTLE CREEK   CLOUDY    26  14  60 S14       30.27F WCI  14
BENTON HARBOR  LGT SNOW  22  15  75 S14G20    30.26F WCI   9
COLDWATER*     CLOUDY    26  16  65 SW10      30.28F WCI  17
HILLSDALE*     PTSUNNY   25  15  64 S7        30.26F WCI  17
HOLLAND        CLOUDY    26  14  60 S13       30.25F WCI  15
GRAND RAPIDS   LGT SNOW  24  18  77 S10       30.26F WCI  14
KALAMAZOO      PTSUNNY   25  16  68 S12       30.28F WCI  14
STURGIS*       CLOUDY    23  18  80 S10       30.28S WCI  12
THREE RIVERS*  CLOUDY    24  17  74 SW14      30.29F WCI  11

$$
OHZ001>008-015>018-024>025-281700-
NORTHWEST OHIO

CITY           SKY/WX    TMP DP  RH WIND       PRES   REMARKS
WAUSEON*       FAIR      25  16  68 SW8       30.32F WCI  16
DEFIANCE       CLOUDY    26  15  63 S8        30.33F WCI  18
FINDLAY        CLOUDY    27  15  61 S10       30.32F WCI  17
TOLEDO EXPRESS PTSUNNY   24  16  71 S5        30.33F WCI  18
TOLEDO METCALF PTSUNNY   24  15  68 S7        30.35F WCI  16
LIMA           CLOUDY    27  16  63 S9        30.32F WCI  18

$$
AND FOR LAKE MICHIGAN COASTAL AND OPEN LAKE BUOY OBSERVATIONS

STATION/POSITION TEMP    WIND        PRES    VSBY  WAVE
                 AIR SEA DIR/SP/G                  HT/PER
                 (F)     (DEG/KT/KT) (MB)    (MI)  (FT/S)
CALUMET HARBOR    23     180/ 11/ 17 1023.3R
MICHIGAN CITY     23     150/ 10/ 14   N/A
SAINT JOSEPH      22     150/  7/ 12 1025.1S
SOUTH LAKE BUOY   27 42  180/ 16/ 19 1024.3F         2/ 4

$$
&&



USA.gov is the U.S. government's official web portal to all federal, state and local government web resources and services.